Location: Rosenheim
(47.8408°N, 12.2113°E)
Time: 18:23:56
(UTC+02:00)

ISS - Pass Details

Date: 10 January 2018
Orbit: 401 x 409 km, 51.6° (Epoch: 22 August)

Event Time Altitude Azimuth Distance (km) Brightness Sun altitude
Exits shadow 05:05:27 19° 73° (ENE) 1,070 -1.0 -28.2°
Drops below altitude 10° 05:06:38 10° 81° (E) 1,512 0.0 -28.0°
Enters shadow 06:02:20 -70° 287° (WNW) 12,407 3.7 -18.7°
Maximum altitude 06:40:14 75° 207° (SSW) 443 -3.7 -12.6°
